"2016-03-11 00:00:00",1447131,4.028,136.1,4.212,0.146,16.64,105.9704,14.56,15.55,17.56,0,110.7,13.11,15.36,98.1
"2016-03-11 00:00:30",1447132,3.995,140.6,1.619,0.157,16.67,105.9707,14.56,15.56,17.52,0,110.7,13.11,15.36,102.6
"2016-03-11 00:01:00",1447133,3.97,135.5,3.137,0.282,16.69,105.9662,14.55,15.56,17.48,0,110.7,13.12,15.35,97.5
"2016-03-11 00:01:30",1447134,3.815,129.4,2.679,0.252,16.73,105.9651,14.54,15.56,17.53,0,110.7,13.12,15.35,91.4
"2016-03-11 00:02:00",1447135,2.742,131.4,5.089,0.181,16.7,105.9662,14.55,15.57,17.57,0,110.7,13.12,15.35,93.4
"2016-03-11 00:02:30",1447136,3.599,128.9,4.228,0.461,16.65,105.9659,14.55,15.57,17.53,0,110.7,13.12,15.35,90.9
"2016-03-11 00:03:00",1447137,4.247,121.4,3.753,0.194,16.5,105.9628,14.54,15.56,17.5,0,110.7,13.12,15.34,83.4
"2016-03-11 00:03:30",1447138,4.395,123.4,1.98,0.162,16.57,105.9569,14.52,15.55,17.58,0,110.7,13.12,15.33,85.4
"2016-03-11 00:04:00",1447139,4.408,117.2,1.375,0.258,16.58,105.9544,14.52,15.55,17.53,0,110.7,13.12,15.32,79.2
"2016-03-11 00:04:30",1447140,4.549,120.9,3.781,0.24,16.46,105.9519,14.51,15.57,17.47,0,110.7,13.12,15.31,82.9
"2016-03-11 00:05:00",1447141,4.918,125.6,2.412,0.153,16.47,105.9473,14.5,15.57,17.34,0,110.7,13.12,15.30,87.6
"2016-03-11 00:05:30",1447142,4.614,133.5,3.644,0.397,16.7,105.9459,14.49,15.57,17.34,0,110.7,13.12,15.30,95.5
"2016-03-11 00:06:00",1447143,4.242,136.3,6.91,0.167,16.62,105.9459,14.49,15.56,17.4,0,110.7,13.12,15.30,98.3
"2016-03-11 00:06:30",1447144,4.413,123.5,2.439,0.197,16.56,105.9459,14.49,15.56,17.3,0,110.7,13.12,15.30,85.5
"2016-03-11 00:07:00",1447145,4.708,124,2.587,0.32,16.51,105.9459,14.49,15.54,17.25,0,110.7,13.12,15.30,86.0
"2016-03-11 00:07:30",1447146,4.706,125.3,2.543,0.307,16.63,105.9431,14.49,15.56,17.31,0,110.7,13.12,15.29,87.3
"2016-03-11 00:08:00",1447147,4.543,129.9,2.377,0.138,16.58,105.9375,14.47,15.54,17.31,0,110.7,13.12,15.28,91.9
"2016-03-11 00:08:30",1447148,4.426,132.1,4.586,0.142,16.78,105.9305,14.45,15.53,17.31,0,110.7,13.12,15.26,94.1
"2016-03-11 00:09:00",1447149,4.3,134.8,1.905,0.152,16.73,105.9169,14.42,15.53,17.35,0,110.7,13.12,15.22,96.8
"2016-03-11 00:09:30",1447150,4.458,128.6,1.922,0.224,16.77,105.9131,14.41,15.51,17.34,0,110.7,13.12,15.21,90.6
"2016-03-11 00:10:00",1447151,5.077,134.7,8,1.287,18.32,105.9128,14.41,15.66,17.51,0,110.7,13.07,15.21,96.7
"2016-03-11 00:10:30",1447152,5.884,139.1,8.3,1.43,20.14,105.9155,14.42,15.74,17.65,0,110.7,13.07,15.22,101.1
"2016-03-11 00:11:00",1447153,5.89,134.8,8.86,1.575,19.48,105.9082,14.4,15.66,17.65,0,110.7,13.06,15.20,96.8
"2016-03-11 00:11:30",1447154,4.686,128,1.722,0.14,16.14,105.9007,14.38,15.47,17.48,0,110.7,13.11,15.18,90.0
"2016-03-11 00:12:00",1447155,5.404,132.8,7.329,1.33,17.74,105.8893,14.35,15.66,17.6,0,110.7,13.06,15.15,94.8
"2016-03-11 00:12:30",1447156,5.733,137.2,6.419,1.378,17.85,105.8873,14.34,15.59,17.43,0,110.7,13.06,15.15,99.2
"2016-03-11 00:13:00",1447157,4.508,131.2,1.778,0.353,16.03,105.8758,14.31,15.42,17.24,0,110.7,13.11,15.12,93.2
"2016-03-11 00:13:30",1447158,4.607,132.7,1.22,0.142,16.08,105.8598,14.27,15.41,17.24,0,110.7,13.11,15.08,94.7
"2016-03-11 00:14:00",1447159,4.523,131.9,0.991,0.151,16.3,105.8556,14.26,15.4,17.25,0,110.7,13.11,15.06,93.9
"2016-03-11 00:14:30",1447160,4.285,131,1.237,0.164,16.5,105.8524,14.25,15.37,17.25,0,110.7,13.11,15.06,93.0
"2016-03-11 00:15:00",1447161,4.404,130.7,1.375,0.166,16.6,105.8322,14.2,15.36,17.32,0,110.7,13.11,15.00,92.7
"2016-03-11 00:15:30",1447162,4.423,131.2,1.158,0.137,16.73,105.8332,14.21,15.33,17.4,0,110.7,13.12,15.01,93.2
"2016-03-11 00:16:00",1447163,5.247,134.8,5.951,1.205,17.83,105.8282,14.19,15.34,17.48,0,110.7,13.07,14.99,96.8
"2016-03-11 00:16:30",1447164,5.478,134.1,6.704,1.405,19.29,105.8114,14.15,15.49,17.71,0,110.7,13.07,14.95,96.1
"2016-03-11 00:17:00",1447165,5.553,130.8,8.07,1.418,19.92,105.8078,14.14,15.5,17.79,0,110.7,13.07,14.94,92.8
"2016-03-11 00:17:30",1447166,3.919,124.8,2.36,0.083,16.18,105.7953,14.11,15.23,17.64,0,110.6,13.12,14.91,86.8
"2016-03-11 00:18:00",1447167,4.234,128.2,2.591,0.256,15.9,105.779,14.07,15.2,17.66,0,110.6,13.12,14.87,90.2
"2016-03-11 00:18:30",1447168,4.272,129.2,2.274,0.148,15.98,105.7756,14.06,15.18,17.66,0,110.6,13.12,14.86,91.2
"2016-03-11 00:19:00",1447169,5.196,125.6,6.55,1.263,17.67,105.7593,14.02,15.2,17.67,0,110.7,13.08,14.82,87.6
"2016-03-11 00:19:30",1447170,5.976,128,8.24,1.415,18.96,105.7452,13.98,15.35,17.89,0,110.6,13.08,14.78,90.0
"2016-03-11 00:20:00",1447171,4.834,124.6,3.506,0.556,16.38,105.7429,13.97,15.1,17.81,0,110.6,13.08,14.78,86.6
"2016-03-11 00:20:30",1447172,4.584,123.7,1.604,0.165,16.2,105.7224,13.92,15.08,17.94,0,110.6,13.13,14.72,85.7
"2016-03-11 00:21:00",1447173,4.866,121,1.342,0.083,16.39,105.7114,13.89,15.05,17.88,0,110.6,13.13,14.69,83.0
"2016-03-11 00:21:30",1447174,4.706,120,0.807,0.114,16.48,105.7069,13.88,15.02,17.83,0,110.6,13.13,14.68,82.0
"2016-03-11 00:22:00",1447175,4.776,123.1,3.714,0.131,16.73,105.6875,13.83,15.05,17.93,0,110.6,13.13,14.63,85.1
"2016-03-11 00:22:30",1447176,6.087,129.4,8.08,1.555,19.15,105.6776,13.81,15.1,17.95,0,110.6,13.08,14.61,91.4
"2016-03-11 00:23:00",1447177,5.504,123.7,7.099,1.335,18.46,105.6734,13.8,15.08,17.99,0,110.6,13.08,14.60,85.7
"2016-03-11 00:23:30",1447178,5.527,124.3,6.071,1.292,17.89,105.6559,13.75,15.07,18.01,0,110.6,13.08,14.55,86.3
"2016-03-11 00:24:00",1447179,4.553,117.2,3.516,0.561,16.11,105.6438,13.72,14.89,17.84,0,110.6,13.08,14.52,79.2
"2016-03-11 00:24:30",1447180,4.604,115.4,2.053,0.087,15.7,105.6441,13.72,14.86,17.89,0,110.6,13.13,14.52,77.4
"2016-03-11 00:25:00",1447181,4.491,117.9,0.804,0.108,15.75,105.6362,13.7,14.84,17.87,0,110.6,13.13,14.50,79.9
"2016-03-11 00:25:30",1447182,4.421,116.8,1.59,0.086,15.97,105.6178,13.65,14.81,17.91,0,110.6,13.13,14.45,78.8
"2016-03-11 00:26:00",1447183,4.506,115.2,1.558,0.111,16.24,105.6171,13.65,14.79,17.95,0,110.6,13.13,14.45,77.2
"2016-03-11 00:26:30",1447184,5.803,123,7.652,1.432,18.96,105.6192,13.66,14.94,18.15,0,110.6,13.09,14.46,85.0
"2016-03-11 00:27:00",1447185,5.137,122.3,6.636,1.373,18.14,105.6204,13.66,14.84,18.11,0,110.6,13.09,14.46,84.3
"2016-03-11 00:27:30",1447186,4.058,117.6,3.042,0.164,16.52,105.6163,13.65,14.74,18.06,0,110.6,13.13,14.45,79.6
"2016-03-11 00:28:00",1447187,4.272,121.6,2.13,0.11,16.5,105.6106,13.64,14.73,18.07,0,110.6,13.13,14.44,83.6
"2016-03-11 00:28:30",1447188,5.062,125.7,7.994,1.295,18.38,105.5992,13.61,14.82,18.18,0,110.6,13.08,14.41,87.7
"2016-03-11 00:29:00",1447189,5.036,124.3,6.473,1.38,18.26,105.5994,13.61,14.8,18.2,0,110.6,13.09,14.41,86.3
"2016-03-11 00:29:30",1447190,4.436,128,5.842,1.135,17.86,105.6051,13.62,14.77,18.22,0,110.6,13.09,14.42,90.0
"2016-03-11 00:30:00",1447191,4.479,129.6,5.382,1.406,17.99,105.608,13.63,14.77,18.24,0,110.6,13.09,14.43,91.6
"2016-03-11 00:30:30",1447192,4.133,127.5,2.11,0.154,15.87,105.6099,13.63,14.66,18.17,0,110.5,13.13,14.43,89.5
"2016-03-11 00:31:00",1447193,4.454,124.7,1.372,0.109,15.77,105.6054,13.62,14.63,18.12,0,110.5,13.13,14.42,86.7
"2016-03-11 00:31:30",1447194,4.45,128.4,1.193,0.066,15.73,105.5964,13.6,14.64,18.07,0,110.5,13.13,14.40,90.4
"2016-03-11 00:32:00",1447195,4.451,129.8,0.541,0.071,16.05,105.5925,13.59,14.62,18.06,0,110.5,13.14,14.39,91.8
"2016-03-11 00:32:30",1447196,4.372,127.2,1.457,0.07,16.34,105.5806,13.56,14.61,18.07,0,110.5,13.14,14.36,89.2
"2016-03-11 00:33:00",1447197,5.036,133,7.07,1.219,17.79,105.5781,13.55,14.7,18.17,0,110.5,13.09,14.35,95.0
"2016-03-11 00:33:30",1447198,5.832,135,7.533,1.452,18.91,105.5781,13.55,14.72,18.23,0,110.5,13.1,14.35,97.0
"2016-03-11 00:34:00",1447199,4.418,130.3,2.405,0.124,16.5,105.5761,13.55,14.58,18.11,0,110.5,13.15,14.35,92.3
"2016-03-11 00:34:30",1447200,4.999,131.6,7.254,1.243,17.83,105.5691,13.53,14.66,18.22,0,110.5,13.1,14.33,93.6
"2016-03-11 00:35:00",1447201,5.253,137.2,8.42,1.328,17.8,105.5623,13.51,14.71,18.25,0,110.5,13.1,14.31,99.2
"2016-03-11 00:35:30",1447202,5.747,136.6,8.1,1.456,18.96,105.5482,13.48,14.71,18.29,0,110.5,13.1,14.27,98.6
"2016-03-11 00:36:00",1447203,5.872,137.7,7.642,1.473,18.59,105.5443,13.47,14.65,18.23,0,110.5,13.1,14.26,99.7
"2016-03-11 00:36:30",1447204,4.756,127.7,2.236,0.153,15.93,105.5443,13.47,14.52,18.14,0,110.5,13.15,14.26,89.7
"2016-03-11 00:37:00",1447205,4.617,124.1,1.836,0.094,15.77,105.5443,13.47,14.52,18.17,0,110.5,13.15,14.26,86.1
"2016-03-11 00:37:30",1447206,4.755,125,1.859,0.188,15.89,105.5446,13.47,14.5,18.18,0,110.5,13.15,14.27,87.0
"2016-03-11 00:38:00",1447207,4.683,127.7,1.15,0.185,16.16,105.5425,13.46,14.49,18.15,0,110.5,13.15,14.26,89.7
"2016-03-11 00:38:30",1447208,4.439,129.3,1.003,0.152,16.27,105.5345,13.44,14.5,18.18,0,110.5,13.15,14.24,91.3
"2016-03-11 00:39:00",1447209,4.195,130.6,1.694,0.182,16.5,105.5306,13.43,14.47,18.2,0,110.5,13.15,14.23,92.6
"2016-03-11 00:39:30",1447210,4.408,127.1,3.758,0.143,16.49,105.5222,13.41,14.47,18.22,0,110.5,13.15,14.21,89.1
"2016-03-11 00:40:00",1447211,4.692,129.2,2.551,0.198,16.57,105.5206,13.41,14.48,18.26,0,110.5,13.15,14.20,91.2
"2016-03-11 00:40:30",1447212,6.231,136.3,7.246,1.469,19.52,105.5247,13.42,14.65,18.44,0,110.5,13.11,14.21,98.3
"2016-03-11 00:41:00",1447213,5.77,130.5,6.876,1.348,18.65,105.5271,13.42,14.6,18.43,0,110.5,13.11,14.22,92.5
"2016-03-11 00:41:30",1447214,5.286,130.7,6.887,1.345,18.59,105.5313,13.43,14.63,18.48,0,110.5,13.11,14.23,92.7
"2016-03-11 00:42:00",1447215,4.798,123.5,4.656,0.72,16.4,105.5343,13.44,14.47,18.37,0,110.5,13.11,14.24,85.5
"2016-03-11 00:42:30",1447216,4.986,123,1.438,0.328,15.86,105.5292,13.43,14.43,18.54,0,110.5,13.15,14.23,85.0
"2016-03-11 00:43:00",1447217,6.505,132.1,7.943,1.417,18.43,105.5306,13.43,14.62,18.66,0,110.5,13.11,14.23,94.1
"2016-03-11 00:43:30",1447218,5.974,126.9,6.013,1.101,16.85,105.5332,13.44,14.52,18.49,0,110.5,13.11,14.24,88.9
"2016-03-11 00:44:00",1447219,5.509,123.5,0.61,0.096,15.66,105.5346,13.44,14.42,18.35,0,110.5,13.15,14.24,85.5
"2016-03-11 00:44:30",1447220,5.655,125.2,1.454,0.074,15.61,105.5323,13.44,14.4,18.37,0,110.5,13.15,14.23,87.2
"2016-03-11 00:45:00",1447221,5.514,126.9,0.688,0.069,15.89,105.5304,13.43,14.42,18.37,0,110.5,13.15,14.23,88.9
"2016-03-11 00:45:30",1447222,5.556,127.7,1.123,0.105,16.12,105.529,13.43,14.42,18.37,0,110.5,13.15,14.23,89.7
"2016-03-11 00:46:00",1447223,5.539,129.8,0.885,0.128,16.23,105.5293,13.43,14.41,18.35,0,110.5,13.16,14.23,91.8
"2016-03-11 00:46:30",1447224,5.687,131,4.982,0.912,16.95,105.5253,13.42,14.53,18.48,0,110.5,13.11,14.22,93.0
"2016-03-11 00:47:00",1447225,6.785,134.2,7.745,1.456,18.51,105.525,13.42,14.52,18.51,0,110.5,13.11,14.22,96.2
"2016-03-11 00:47:30",1447226,6.475,135.5,6.988,1.492,18.73,105.527,13.42,14.61,18.63,0,110.5,13.11,14.22,97.5
"2016-03-11 00:48:00",1447227,6.56,136.3,7.217,1.431,18.29,105.5239,13.41,14.5,18.42,0,110.5,13.11,14.21,98.3
"2016-03-11 00:48:30",1447228,5.843,133.5,3.885,0.882,16.21,105.5219,13.41,14.41,18.28,0,110.5,13.11,14.21,95.5
"2016-03-11 00:49:00",1447229,6.222,137.7,6.759,1.275,17.36,105.5236,13.41,14.58,18.4,0,110.5,13.11,14.21,99.7
"2016-03-11 00:49:30",1447230,5.979,136.7,6.553,1.287,17.12,105.5197,13.4,14.47,18.28,0,110.5,13.11,14.20,98.7
"2016-03-11 00:50:00",1447231,5.192,132.9,1.166,0.073,15.77,105.5168,13.4,14.41,18.22,0,110.5,13.15,14.19,94.9
"2016-03-11 00:50:30",1447232,5.363,133.2,2.033,0.143,15.96,105.5138,13.39,14.42,18.25,0,110.5,13.16,14.19,95.2
"2016-03-11 00:51:00",1447233,5.178,137.3,0.992,0.09,16.07,105.5123,13.38,14.41,18.25,0,110.5,13.16,14.18,99.3
"2016-03-11 00:51:30",1447234,5.356,136.7,0.643,0.052,16.19,105.5123,13.38,14.41,18.22,0,110.5,13.16,14.18,98.7
"2016-03-11 00:52:00",1447235,5.893,136.1,6.642,1.216,17.69,105.5123,13.38,14.53,18.4,0,110.5,13.11,14.18,98.1
"2016-03-11 00:52:30",1447236,6.694,137,7.272,1.436,18.92,105.5123,13.38,14.61,18.63,0,110.5,13.11,14.18,99.0
"2016-03-11 00:53:00",1447237,6.434,133.3,7.034,1.295,18.4,105.5123,13.38,14.58,18.84,0,110.5,13.11,14.18,95.3
"2016-03-11 00:53:30",1447238,6.996,136.4,7.113,1.466,18.51,105.5123,13.38,14.6,18.72,0,110.5,13.11,14.18,98.4
"2016-03-11 00:54:00",1447239,7.399,137,7.334,1.376,18.78,105.5095,13.38,14.55,18.61,0,110.5,13.11,14.18,99.0
"2016-03-11 00:54:30",1447240,5.696,131.2,1.116,0.113,15.82,105.5025,13.36,14.39,18.41,0,110.5,13.16,14.16,93.2
"2016-03-11 00:55:00",1447241,5.927,130.9,0.844,0.105,15.81,105.4909,13.33,14.39,18.42,0,110.5,13.16,14.13,92.9
"2016-03-11 00:55:30",1447242,5.9,133.1,0.894,0.073,15.86,105.4814,13.3,14.37,18.44,0,110.5,13.16,14.10,95.1
"2016-03-11 00:56:00",1447243,5.665,134.1,1.315,0.179,16.02,105.4809,13.3,14.37,18.47,0,110.5,13.16,14.10,96.1
"2016-03-11 00:56:30",1447244,5.208,137.2,1.528,0.113,16.28,105.4856,13.32,14.36,18.49,0,110.5,13.16,14.11,99.2
"2016-03-11 00:57:00",1447245,6.675,146.6,7.689,1.446,19.41,105.478,13.3,14.53,18.59,0,110.5,13.12,14.09,108.6
"2016-03-11 00:57:30",1447246,6.06,139.5,6.252,1.159,17.75,105.4716,13.28,14.43,18.5,0,110.5,13.12,14.08,101.5
"2016-03-11 00:58:00",1447247,6.12,141.5,6.354,1.329,17.82,105.4613,13.25,14.41,18.58,0,110.5,13.12,14.05,103.5
"2016-03-11 00:58:30",1447248,7.067,147.2,7.067,1.407,19.69,105.4578,13.24,14.56,18.75,0,110.5,13.12,14.04,109.2
"2016-03-11 00:59:00",1447249,6.065,144.4,7.037,1.359,17.78,105.4605,13.25,14.45,18.63,0,110.5,13.12,14.05,106.4
"2016-03-11 00:59:30",1447250,5.193,139.2,0.768,0.169,15.75,105.4626,13.26,14.28,18.45,0,110.5,13.16,14.05,101.2
"2016-03-11 01:00:00",1447251,5.243,137.9,1.342,0.064,15.77,105.46,13.25,14.27,18.5,0,110.5,13.16,14.05,99.9
"2016-03-11 01:00:30",1447252,5.756,139.1,1.181,0.198,15.99,105.4579,13.24,14.24,18.54,0,110.5,13.17,14.04,101.1
"2016-03-11 01:01:00",1447253,5.832,136.4,2.01,0.107,16.06,105.4463,13.21,14.24,18.55,0,110.5,13.17,14.01,98.4
"2016-03-11 01:01:30",1447254,6.166,137.4,6.681,1.102,17.31,105.443,13.21,14.34,18.65,0,110.5,13.12,14.00,99.4
"2016-03-11 01:02:00",1447255,6.742,141.9,7.699,1.491,18.5,105.4448,13.21,14.33,18.66,0,110.5,13.12,14.01,103.9
"2016-03-11 01:02:30",1447256,6.317,135.5,5.807,1.14,17.63,105.4457,13.21,14.32,18.65,0,110.5,13.12,14.01,97.5
"2016-03-11 01:03:00",1447257,6.004,139.1,5.786,1.036,17.07,105.4448,13.21,14.25,18.6,0,110.5,13.11,14.01,101.1
"2016-03-11 01:03:30",1447258,7.145,145.9,7.86,1.452,19.61,105.4378,13.19,14.42,18.78,0,110.5,13.11,13.99,107.9
"2016-03-11 01:04:00",1447259,6.756,143.8,7.152,1.409,18.21,105.4302,13.17,14.35,18.71,0,110.5,13.12,13.97,105.8
"2016-03-11 01:04:30",1447260,5.276,135.6,1.774,0.106,15.86,105.4206,13.15,14.17,18.54,0,110.5,13.16,13.95,97.6
"2016-03-11 01:05:00",1447261,5.281,136.9,1.59,0.143,15.8,105.4133,13.13,14.16,18.55,0,110.5,13.16,13.93,98.9
"2016-03-11 01:05:30",1447262,5.509,137.3,2.051,0.153,16.08,105.4127,13.13,14.15,18.54,0,110.5,13.16,13.93,99.3
"2016-03-11 01:06:00",1447263,5.813,138,1.354,0.144,16.26,105.4127,13.13,14.14,18.56,0,110.5,13.16,13.93,100.0
"2016-03-11 01:06:30",1447264,6.433,144.2,6.706,1.311,17.76,105.4127,13.13,14.19,18.6,0,110.5,13.12,13.93,106.2
"2016-03-11 01:07:00",1447265,6.893,145.8,7.872,1.41,18.68,105.4127,13.13,14.34,18.77,0,110.5,13.12,13.93,107.8
"2016-03-11 01:07:30",1447266,7.079,141.9,7.386,1.373,18.02,105.4124,13.13,14.17,18.59,0,110.5,13.12,13.93,103.9
"2016-03-11 01:08:00",1447267,6.664,141.1,6.621,1.243,17.71,105.4102,13.12,14.25,18.73,0,110.5,13.12,13.92,103.1
"2016-03-11 01:08:30",1447268,7.473,147.4,7.264,1.478,18.69,105.4074,13.12,14.25,18.76,0,110.5,13.12,13.91,109.4
"2016-03-11 01:09:00",1447269,6.645,150.2,7.873,1.425,18.35,105.4031,13.1,14.32,18.75,0,110.4,13.13,13.90,112.2
"2016-03-11 01:09:30",1447270,6.36,141.5,5.332,1.03,16.61,105.3978,13.09,14.09,18.59,0,110.5,13.12,13.89,103.5
"2016-03-11 01:10:00",1447271,5.73,141.1,1.295,0.08,15.89,105.3941,13.08,14.09,18.61,0,110.5,13.17,13.88,103.1
"2016-03-11 01:10:30",1447272,5.603,141.2,1.031,0.101,16.01,105.3933,13.08,14.08,18.57,0,110.5,13.17,13.88,103.2
"2016-03-11 01:11:00",1447273,5.748,139.4,1.367,0.066,16.23,105.3913,13.07,14.08,18.65,0,110.5,13.17,13.87,101.4
"2016-03-11 01:11:30",1447274,6.995,147.3,7.877,1.436,19.06,105.3865,13.06,14.25,18.86,0,110.5,13.13,13.86,109.3
"2016-03-11 01:12:00",1447275,6.712,144.6,7.235,1.395,18.03,105.3794,13.04,14.16,18.77,0,110.4,13.13,13.84,106.6
"2016-03-11 01:12:30",1447276,6.746,145.3,6.981,1.354,17.77,105.3789,13.04,14.18,18.78,0,110.4,13.13,13.84,107.3
"2016-03-11 01:13:00",1447277,6.631,143.5,6.32,1.356,17.5,105.3789,13.04,14.15,18.81,0,110.4,13.13,13.84,105.5
"2016-03-11 01:13:30",1447278,5.864,140.6,2.62,0.296,16.01,105.3807,13.05,14.09,18.84,0,110.4,13.18,13.84,102.6
"2016-03-11 01:14:00",1447279,7.192,148.3,7.336,1.466,18.31,105.383,13.05,14.21,19.05,0,110.4,13.13,13.85,110.3
"2016-03-11 01:14:30",1447280,6.674,144.4,6.553,1.331,17.49,105.3819,13.05,14.15,18.99,0,110.4,13.13,13.85,106.4
"2016-03-11 01:15:00",1447281,5.71,140.7,0.924,0.05,16,105.3817,13.05,14.05,18.92,0,110.4,13.18,13.85,102.7
"2016-03-11 01:15:30",1447282,5.768,140.3,0.494,0.053,15.98,105.3787,13.04,14.05,18.91,0,110.4,13.18,13.84,102.3
"2016-03-11 01:16:00",1447283,6.417,145.1,6.454,1.165,17.62,105.3776,13.04,14.13,19.01,0,110.4,13.13,13.84,107.1
"2016-03-11 01:16:30",1447284,6.795,145.7,6.937,1.336,17.86,105.3748,13.03,14.15,19.06,0,110.4,13.13,13.83,107.7
"2016-03-11 01:17:00",1447285,7.255,146.4,7.245,1.426,18.81,105.3721,13.03,14.25,19.19,0,110.4,13.13,13.82,108.4
"2016-03-11 01:17:30",1447286,7.067,147.7,7.002,1.432,17.96,105.368,13.01,14.14,19.05,0,110.4,13.13,13.81,109.7
"2016-03-11 01:18:00",1447287,6.105,141.5,1.395,0.068,15.78,105.3604,13,14.01,18.97,0,110.4,13.18,13.79,103.5
"2016-03-11 01:18:30",1447288,6.387,143.4,5.232,0.969,16.48,105.3629,13,14.02,18.97,0,110.4,13.13,13.80,105.4
"2016-03-11 01:19:00",1447289,6.955,144.7,6.056,1.349,17.21,105.3641,13,14.12,19.09,0,110.4,13.13,13.80,106.7
"2016-03-11 01:19:30",1447290,6.799,144.3,6.007,1.294,17.37,105.3647,13.01,14.11,19.07,0,110.4,13.13,13.80,106.3
"2016-03-11 01:20:00",1447291,5.989,141.3,0.838,0.062,16.09,105.3644,13.01,14.01,18.97,0,110.4,13.17,13.80,103.3
"2016-03-11 01:20:30",1447292,6.205,143.1,4.159,0.88,16.63,105.3647,13.01,13.99,18.98,0,110.4,13.12,13.80,105.1
"2016-03-11 01:21:00",1447293,7.133,150.6,7.742,1.468,18.94,105.365,13.01,14.2,19.18,0,110.4,13.13,13.80,112.6
"2016-03-11 01:21:30",1447294,6.787,147.9,6.839,1.371,18.01,105.3648,13.01,14.08,19.06,0,110.4,13.12,13.80,109.9
"2016-03-11 01:22:00",1447295,6.515,146.8,6.585,1.278,17.35,105.3588,12.99,14.12,19.11,0,110.4,13.13,13.79,108.8
"2016-03-11 01:22:30",1447296,5.669,143.5,0.789,0.071,15.57,105.3578,12.99,13.96,18.96,0,110.4,13.17,13.79,105.5
"2016-03-11 01:23:00",1447297,5.659,144.8,0.687,0.036,15.57,105.3528,12.98,13.97,18.94,0,110.4,13.17,13.77,106.8
"2016-03-11 01:23:30",1447298,5.702,145.5,0.683,0.053,15.86,105.3515,12.97,14.01,18.98,0,110.4,13.18,13.77,107.5
"2016-03-11 01:24:00",1447299,7.238,153.8,7.513,1.417,18.73,105.342,12.95,14.09,19.07,0,110.4,13.14,13.75,115.8
"2016-03-11 01:24:30",1447300,6.405,149.2,6.897,1.229,17.53,105.3427,12.95,14.06,19.05,0,110.4,13.14,13.75,111.2
"2016-03-11 01:25:00",1447301,5.675,145.9,0.848,0.025,16.29,105.3448,12.95,13.95,18.94,0,110.4,13.19,13.75,107.9
"2016-03-11 01:25:30",1447302,6.488,150.9,6.83,1.3,17.83,105.3433,12.95,14.1,19.06,0,110.4,13.14,13.75,112.9
"2016-03-11 01:26:00",1447303,6.493,149.9,6.925,1.303,18.03,105.3457,12.96,14.12,19.13,0,110.4,13.14,13.75,111.9
"2016-03-11 01:26:30",1447304,7.289,154.5,7.143,1.414,19.11,105.346,12.96,14.12,19.16,0,110.4,13.14,13.76,116.5
"2016-03-11 01:27:00",1447305,5.749,146.8,0.687,0.034,15.88,105.3469,12.96,13.97,19.03,0,110.4,13.19,13.76,108.8
"2016-03-11 01:27:30",1447306,5.782,145.9,0.722,0.049,15.66,105.3463,12.96,13.92,19,0,110.4,13.19,13.76,107.9
"2016-03-11 01:28:00",1447307,5.919,145.8,0.497,0.043,15.76,105.3449,12.96,13.93,19.04,0,110.4,13.19,13.75,107.8
"2016-03-11 01:28:30",1447308,6.07,145.1,0.586,0.05,15.83,105.339,12.94,13.92,19.06,0,110.4,13.19,13.74,107.1
"2016-03-11 01:29:00",1447309,7.052,149.5,7.097,1.337,18.06,105.3359,12.93,14.09,19.25,0,110.4,13.14,13.73,111.5
"2016-03-11 01:29:30",1447310,7.14,150.8,6.946,1.342,17.91,105.3299,12.92,14.05,19.22,0,110.4,13.14,13.71,112.8
"2016-03-11 01:30:00",1447311,7.13,148.8,6.675,1.315,17.75,105.3226,12.9,14.03,19.25,0,110.4,13.14,13.70,110.8
"2016-03-11 01:30:30",1447312,7.651,155.5,6.948,1.401,18.81,105.3181,12.89,14.07,19.34,0,110.4,13.14,13.68,117.5
"2016-03-11 01:31:00",1447313,7.013,151.4,6.204,1.219,17.42,105.3139,12.88,14.06,19.28,0,110.4,13.14,13.67,113.4
"2016-03-11 01:31:30",1447314,7.203,150.3,6.548,1.342,17.21,105.3133,12.87,13.92,19.19,0,110.4,13.14,13.67,112.3
"2016-03-11 01:32:00",1447315,6.372,147.2,0.969,0.092,15.55,105.313,12.87,13.88,19.13,0,110.4,13.19,13.67,109.2
"2016-03-11 01:32:30",1447316,6.528,148.5,0.545,0.046,15.54,105.313,12.87,13.89,19.1,0,110.4,13.19,13.67,110.5
"2016-03-11 01:33:00",1447317,6.47,148.2,0.721,0.052,15.95,105.313,12.87,13.87,19.12,0,110.4,13.19,13.67,110.2
"2016-03-11 01:33:30",1447318,6.843,149,4.96,0.853,16.92,105.313,12.87,13.96,19.25,0,110.4,13.15,13.67,111.0
"2016-03-11 01:34:00",1447319,7.758,154.1,7.285,1.408,18.61,105.313,12.87,13.97,19.3,0,110.4,13.14,13.67,116.1
"2016-03-11 01:34:30",1447320,7.711,155.1,7.492,1.472,18.88,105.313,12.87,14.05,19.34,0,110.4,13.14,13.67,117.1
"2016-03-11 01:35:00",1447321,7.896,154.9,7.398,1.424,18.44,105.313,12.87,13.98,19.26,0,110.4,13.14,13.67,116.9
"2016-03-11 01:35:30",1447322,7.593,153.3,7.365,1.416,18.28,105.313,12.87,14.07,19.39,0,110.4,13.14,13.67,115.3
"2016-03-11 01:36:00",1447323,6.853,150,4.508,0.899,16.28,105.3113,12.87,13.85,19.18,0,110.4,13.14,13.67,112.0
"2016-03-11 01:36:30",1447324,6.503,148.2,0.522,0.034,15.49,105.3094,12.86,13.86,19.19,0,110.4,13.19,13.66,110.2
"2016-03-11 01:37:00",1447325,6.399,147.4,0.764,0.066,15.7,105.3057,12.85,13.85,19.23,0,110.4,13.18,13.65,109.4
"2016-03-11 01:37:30",1447326,6.241,146.4,0.515,0.062,15.71,105.3048,12.85,13.85,19.26,0,110.4,13.18,13.65,108.4
"2016-03-11 01:38:00",1447327,6.412,148.4,2.718,0.603,16.27,105.3034,12.85,13.85,19.27,0,110.4,13.14,13.65,110.4
"2016-03-11 01:38:30",1447328,7.176,150.8,6.572,1.242,17.98,105.2998,12.84,13.98,19.43,0,110.4,13.14,13.64,112.8
"2016-03-11 01:39:00",1447329,8.11,156.3,7.135,1.424,19.77,105.2961,12.83,14.01,19.47,0,110.4,13.14,13.63,118.3
"2016-03-11 01:39:30",1447330,7.748,155.2,7.768,1.436,18.89,105.2947,12.83,14.06,19.57,0,110.4,13.14,13.62,117.2
"2016-03-11 01:40:00",1447331,8.13,158.6,7.403,1.442,18.98,105.2857,12.8,14,19.55,0,110.4,13.14,13.60,120.6
"2016-03-11 01:40:30",1447332,6.415,150.5,0.471,0.091,15.49,105.2795,12.79,13.82,19.41,0,110.4,13.14,13.58,112.5
"2016-03-11 01:41:00",1447333,6.427,149.9,0.515,0.043,15.3,105.2792,12.79,13.83,19.35,0,110.4,13.19,13.58,111.9
"2016-03-11 01:41:30",1447334,6.396,149.3,0.428,0.076,15.53,105.2804,12.79,13.83,19.31,0,110.4,13.19,13.59,111.3
"2016-03-11 01:42:00",1447335,6.329,149.8,0.58,0.046,15.91,105.2807,12.79,13.81,19.3,0,110.4,13.19,13.59,111.8
"2016-03-11 01:42:30",1447336,6.312,151.1,0.534,0.044,16.21,105.2813,12.79,13.81,19.31,0,110.4,13.19,13.59,113.1
"2016-03-11 01:43:00",1447337,7.377,157.9,7.673,1.349,18.34,105.2816,12.79,13.93,19.41,0,110.4,13.15,13.59,119.9
"2016-03-11 01:43:30",1447338,7.975,161.5,7.594,1.42,19.43,105.2836,12.8,14.05,19.51,0,110.4,13.15,13.60,123.5
"2016-03-11 01:44:00",1447339,7.88,161.4,7.636,1.433,18.68,105.283,12.8,13.96,19.42,0,110.4,13.15,13.59,123.4
"2016-03-11 01:44:30",1447340,7.267,158.5,7.011,1.387,18.21,105.2857,12.8,14,19.45,0,110.4,13.15,13.60,120.5
"2016-03-11 01:45:00",1447341,6.49,152.5,5.118,0.996,16.06,105.286,12.8,13.8,19.21,0,110.4,13.15,13.60,114.5
"2016-03-11 01:45:30",1447342,6.207,149.8,0.474,0.05,15.39,105.2861,12.8,13.8,19.17,0,110.4,13.19,13.60,111.8
"2016-03-11 01:46:00",1447343,6.375,149.6,0.66,0.05,15.48,105.2847,12.8,13.8,19.2,0,110.4,13.19,13.60,111.6
"2016-03-11 01:46:30",1447344,6.495,149.6,0.39,0.064,15.67,105.2796,12.79,13.78,19.21,0,110.4,13.2,13.58,111.6
"2016-03-11 01:47:00",1447345,6.671,149.9,0.528,0.048,15.96,105.2785,12.79,13.8,19.22,0,110.4,13.2,13.58,111.9